Погода в Сасыре

Россия / Республика Саха (Якутия)     65°09′43″N   147°04′56″E
темп.,
°C
ветер,
м/с
пор.,
м/с
влажн.,
%
обл.,
%
осадки,
мм/ч
давл.,
гПа
погр.,
м
14 августа, вс
вс1423:00+13юв237667 0.1 100972
02:00+13ссз228159 0.1 101016
05:00+12с1283100 0.2 101115
08:00+14сз1174100 0.1 1011250
11:00+16сз116776 0.1 1011761
14:00+17ссз116170 0.8 1010917
17:00+18зюз0155100 1.3 10101158
20:00+15ююв2367100 0.4 1011258
15 августа, пн
пн1523:00+12ссв1175100 0.5 101218
02:00+11ссз0173100 0.1 101229
05:00+10зюз1173100 0.1 101223
08:00+11ю1269100 0.0 1012415
11:00+14ю345889 0.0 1011842
14:00+16ю445021 0.0 10091016
17:00+16ююв665367 0.0 1008542
20:00+14ююв576189 0.0 1008370
16 августа, вт
вт1623:00+11ююв247079 0.0 1009134
02:00+9ююв237981 0.0 100898
05:00+10ю017790 0.0 100720
08:00+12ю116887 0.0 1006272
11:00+15ю225810 0.0 1004710
14:00+18ю334591 0.0 10011292
17:00+19ююв3342100 0.0 10001552
20:00+17ю3451100 0.0 1000161
17 августа, ср
ср1723:00+14юв2363100 0.0 100069
02:00+11вюв1175100 0.0 100010
05:00+10с1179100 0.0 100010
08:00+14зюз1064100 0.0 1000189
11:00+16з1155100 0.0 999729
14:00+18ссз1247100 0.0 9971318
17:00+19зюз2242100 0.0 9971712
20:00+14юв5866100 0.2 998231
18 августа, чт
чт1823:00+12ююв246787 0.2 99887
02:00+10юв1172100 0.0 99813
05:00+9ю1178100 0.0 99811
08:00+14ю23595 0.0 998276
11:00+18ю23483 0.0 996736
14:00+21ююв443828 0.0 9951292
17:00+22ююв5533100 0.0 9942043
20:00+19юв344468 0.0 99541